星链-5595 (STARLINK-5595 )

导读 | 豆包AI

STARLINK-5595是美国太空探索技术公司(SpaceX)星链(Starlink)星座的卫星,于2023年3月3日发射。作为星链低轨互联网星座组成部分,它属于Starlink V1.5型号卫星,配备激光星间链路,可支持全球高速宽带互联网服务,能降低对地面基站依赖,扩展星链网络覆盖范围。星链计划旨在构建全球覆盖、大容量低时延天基通信系统。

基本信息
目录编号:
55765
目录名称:
STARLINK-5595
国际标识:
2023-028AA
轨道中心:
EARTH
卫星名称:
星链-5595
卫星全名:
星链-5595 (STARLINK-5595 )
卫星状态:
在轨 (已飞行1154 天)
发射日期:
2023-03-03 UTC
国别 :
美国 (US)
星等 :
--
轨道信息
数据来源 国际轨道数据 AOE轨道数据
星历时间 2026-04-30T12:35:33+0800
7小时前
查看轨道信息
2026-04-27T09:00:00+0800
3天前
查看轨道信息
半长轴 6950.155km 6950.262km
偏心率 0.0003129 0.0003564
轨道倾角 69.999° 69.997°
近地点辐角 268.002° 294.086°
升交点赤经 94.762° 102.711°
平近点角 92.079° 1.346°
近地点 569.843km 569.647km
远地点 574.193km 574.603km
周期 96.106分钟 96.108分钟
每日圈数 14.983425 14.983078
详细信息
固有亮度:
5
最大亮度:
2.5
卫星平台:
Starlink v1.5
覆盖范围:
全球
运营商:
太空探索技术公司
运营商所在国:
美国
制造商(研发单位):
太空探索技术公司
制造商所在国:
美国
使用方式:
暂无
卫星简介
星链(Starlink)计划是由太空探索技术公司(SpaceX)提出的一个巨型低轨卫星互联网星座项目,计划在2019年至2024年间在太空搭建由约1.2万颗卫星组成的“星链”网络,其中1584颗将部署在地球上空550千米处的近地轨道,并从2020年开始工作。该卫星仍在工作。
2D轨道图
3D轨道图
轨道高度分析图
轨道倾角分析图
轨道综合分析图
查看轨道综合分析图